Torna al catalogo

FENGYUN 1C DEB

AttivoSSO
NORAD 31247·DEBRIS·🇨🇳 China

Lanciato May 10, 1999 da Taiyuan Satellite Launch Center

Loading…

Prossimi Passaggi (prossime 24 ore)

TLE

AggiornatoSource: Space-Track

Epoca: Sep 14, 2026, 10:44 UTC

1 31247U 99025BMD 26257.44761624  .00000503  00000-0  33210-3 0  9998
2 31247  99.3414 159.3429 0060456  25.8462  30.5749 14.05672051993943

Traccia FENGYUN 1C DEB in tempo reale con AllMySat

Download on the App Store